Regional Weather Roundup
Issued by NWS

Home | Current Version | Previous Version | Text Only | Print | Product List | Glossary Off
Versions: 1 2 3 4 5 6 7 8 9 10 11 12 13 14 15 16 17 18 19 20 21 22 23 24 25 26 27 28 29 30 31 32 33 34 35 36 37 38 39 40 41 42 43 44 45 46 47 48 49 50

000
ASUS45 KCYS 112210
RWRWY

WYOMING REGIONAL WEATHER ROUNDUP
NATIONAL WEATHER SERVICE CHEYENNE WY
400 PM MDT FRI JUL 11 2014

NOTE:  "FAIR" INDICATES FEW OR NO CLOUDS BELOW 12,000 FEET
WITH NO SIGNIFICANT WEATHER AND/OR OBSTRUCTIONS TO VISIBILITY.

WYZ001-112300-
YELLOWSTONE NATIONAL PARK

CITY           SKY/WX    TMP DP  RH WIND       PRES   REMARKS
LK YELLOWSTONE   N/A     68  50  52 VRB3      30.30F
W YELLOWSTONE  NOT AVBL

$$
WYZ002>013-054>058-071-098>099-112300-
NORTHERN WYOMING

CITY           SKY/WX    TMP DP  RH WIND       PRES   REMARKS
JACKSON        SUNNY     79  46  31 S12       30.18F
CODY           CLOUDY   N/A N/A N/A N14G21    30.14S
GREYBULL       PTSUNNY   87  55  33 NW15G22   30.03S
WORLAND        CLOUDY    79  51  37 SE16G24   30.08R
SHERIDAN       PTSUNNY   84  58  40 CALM      30.08F
BUFFALO        CLOUDY    76  59  55 NW12      30.16S
GILLETTE       CLOUDY    81  61  50 E7        30.11R
HULETT         FAIR      77  64  65 MISG      30.13
NEWCASTLE      FAIR      64  57  77 CALM      30.15

$$
WYZ014>020-022>026-101>103-112300-
CENTRAL WYOMING

CITY           SKY/WX    TMP DP  RH WIND       PRES   REMARKS
BIG PINEY      CLOUDY    67  50  54 E20       30.29R
PINEDALE       CLOUDY    61  50  67 E12G18    30.32S
DUBOIS         RAIN      59  50  72 NW14G22   30.31R
LANDER         CLOUDY    75  51  43 SW7       30.15S
RIVERTON       LGT RAIN  70  53  54 NE23G29   30.19R
CASPER         LGT RAIN  78  55  44 N12G17    30.15R
DOUGLAS        CLOUDY    79  56  45 SE10      30.13F

$$
WYZ021-027>030-104>119-112300-
SOUTHERN WYOMING

CITY           SKY/WX    TMP DP  RH WIND       PRES   REMARKS
EVANSTON       LGT RAIN  64  56  75 SE10      30.31R
KEMMERER       CLOUDY    72  48  43 NW3       30.30F
FORT BRIDGER   FAIR      69  53  55 W8        30.33S
ROCK SPRINGS   PTSUNNY   76  49  38 W5        30.23S
DIXON          FAIR      85  49  27 W9        30.21F
RAWLINS        LGT RAIN  75  55  49 NW14      30.21S
SARATOGA       FAIR      79  48  34 E3        30.23S
LARAMIE        PTSUNNY   65  57  75 SE12      30.28F
CHEYENNE       CLOUDY    76  59  55 N6        30.19F
TORRINGTON     LGT RAIN  72  62  71 NE18      30.07R

$$



USA.gov is the U.S. government's official web portal to all federal, state and local government web resources and services.